Location: Maiden
(35.5760°N, 81.2120°W)
Time: 03:37:02
(UTC-04:00)

Vanguard 2 - Pass Details

Date: 10 August 2020
Orbit: 553 x 2937 km, 32.9° (Epoch: 20 September)

Event Time Altitude Azimuth Distance (km) Brightness Sun altitude
Rises 02:10:37 0° 279° (W) 5,908 12.0 -38.1°
Reaches altitude 10° 02:15:09 10° 276° (W) 4,538 11.3 -37.9°
Enters shadow 02:18:31 20° 272° (W) 3,495 10.7 -37.7°
Maximum altitude 02:26:23 58° 202° (SSW) 1,585 - -37.3°
Drops below altitude 10° 02:33:01 10° 124° (SE) 2,755 - -36.9°
Sets 02:35:09 0° 120° (ESE) 3,482 - -36.8°
